This is the latest recevied weather packets stored in our database for station/object N3TTT-13. If no packets are shown the sender has not sent any weather packets the latest 10 day(s).
| Time | Temp. | Humidity | Pressure | Rain* | Wind** | Luminosity | Snow |
|---|---|---|---|---|---|---|---|
| 1777862175 | 8.33° C | 64% | 1015.6 hPa | 0 mm | - | 0 W/m² | - |
| 1777861871 | 8.33° C | 65% | 1015.8 hPa | 0 mm | - | 0 W/m² | - |
| 1777861568 | 8.33° C | 64% | 1015.5 hPa | 0 mm | - | 0 W/m² | - |
| 1777861264 | 8.33° C | 66% | 1015.7 hPa | 0 mm | - | 0 W/m² | - |
| 1777860962 | 8.33° C | 65% | 1015.8 hPa | 0 mm | - | 0 W/m² | - |
| 1777860659 | 8.33° C | 65% | 1015.7 hPa | 0 mm | - | 0 W/m² | - |
| 1777860355 | 8.33° C | 66% | 1015.5 hPa | 0 mm | - | 0 W/m² | - |
| 1777860052 | 8.89° C | 65% | 1015.4 hPa | 0 mm | - | 0 W/m² | - |
| 1777859748 | 8.89° C | 63% | 1015.5 hPa | 0 mm | - | 0 W/m² | - |
| 1777859444 | 8.89° C | 62% | 1015.7 hPa | 0 mm | - | 0 W/m² | - |
| 1777859141 | 8.89° C | 62% | 1015.6 hPa | 0 mm | - | 0 W/m² | - |
| 1777858838 | 8.89° C | 61% | 1015.5 hPa | 0 mm | - | 0 W/m² | - |
| 1777858536 | 8.89° C | 63% | 1015.4 hPa | 0 mm | - | 0 W/m² | - |
| 1777858232 | 9.44° C | 61% | 1015.5 hPa | 0 mm | - | 0 W/m² | - |
| 1777857930 | 9.44° C | 62% | 1015.4 hPa | 0 mm | - | 0 W/m² | - |
| 1777857627 | 9.44° C | 61% | 1015.5 hPa | 0 mm | - | 0 W/m² | - |
| 1777857324 | 9.44° C | 59% | 1015.2 hPa | 0 mm | - | 0 W/m² | - |
| 1777857020 | 10° C | 58% | 1015.1 hPa | 0 mm | - | 0 W/m² | - |
| 1777856716 | 10° C | 59% | 1015 hPa | 0 mm | - | 0 W/m² | - |
| 1777856412 | 10° C | 58% | 1015 hPa | 0 mm | - | 0 W/m² | - |
| 1777856109 | 10° C | 56% | 1015.2 hPa | 0 mm | - | 0 W/m² | - |
| 1777855806 | 10° C | 57% | 1015 hPa | 0 mm | - | 0 W/m² | - |
| 1777855504 | 10° C | 56% | 1015 hPa | 0 mm | - | 0 W/m² | - |
| 1777855201 | 10° C | 56% | 1015.1 hPa | 0 mm | - | 0 W/m² | - |
| 1777854896 | 10° C | 60% | 1015 hPa | 0 mm | - | 0 W/m² | - |
* Rain latest hour (hover to see other rain measurements)
** Current wind speed in m/s (hover to see current wind gust speed)